Location: Devargunta
(16.7631°N, 80.9077°E)
Time: 16:03:13
(UTC+00:00)

MOS 1 Rocket - Pass Details

Date: 19 January 2021
Orbit: 614 x 830 km, 97.4° (Epoch: 25 February)

Event Time Altitude Azimuth Distance (km) Brightness Sun altitude
Rises 13:00:55 0° 1° (N) 2,875 6.3 -8.8°
Reaches altitude 10° 13:03:10 10° 354° (N) 1,968 5.5 -9.3°
Maximum altitude 13:07:12 43° 283° (WNW) 864 4.3 -10.3°
Drops below altitude 10° 13:11:18 10° 211° (SSW) 2,000 6.4 -11.2°
Sets 13:13:36 0° 205° (SSW) 2,928 7.2 -11.7°
